Tracking 18852 objects as of 24-Nov-2017
HD Live streaming from Space Station
objects crossing your sky now

NIMBUS 2 DEB

Track NIMBUS 2 DEB now!
10-day predictions


NORAD ID: 28205
Int'l Code: 1966-040T
Perigee: 1,065.1 km
Apogee: 1,138.3 km
Inclination: 100.4 °
Period: 107.1 minutes
Semi major axis: 7472 km
RCS: 0.0168 m2 (small)
Launch date: May 15, 1966
Source: United States (US)
Launch site: AIR FORCE WESTERN TEST RANGE (AFWTR)

Note: This is SATELLITE DEBRIS
aabbcc
Your satellite tracking list
Your tracking list is empty




NASA's NSSDC Master Catalog

Two Line Element Set (TLE):
1 28205U 66040T   17327.25027049  .00001585  00000-0  28017-2 0  9991
2 28205 100.3679  54.1574 0048945 279.7996 146.0830 13.43963408671333
Source of the keplerian elements: AFSPC